Regional Weather Roundup
Issued by NWS Green Bay, WI

Home | Current Version | Previous Version | Graphics & Text | Print | Product List | Glossary Off
Versions: 1 2 3 4 5 6 7 8 9 10 11 12 13 14 15 16 17 18 19 20 21 22 23 24 25 26 27 28 29 30 31 32 33 34 35 36 37 38 39 40 41 42 43 44 45 46 47 48 49 50

000
ASUS43 KGRB 191259
RWRGRB

NORTH-CENTRAL AND NORTHEAST WISCONSIN REGIONAL WEATHER ROUNDUP
NATIONAL WEATHER SERVICE GREEN BAY WI
700 AM CST FRI DEC 19 2014

WIZ005-009-010>012-018-019-191400-
NORTH CENTRAL WISCONSIN

CITY           SKY/WX    TMP DP  RH WIND       PRES   REMARKS
IRONWOOD       CLOUDY    10  10 100 CALM      30.22S
MANITOWISH WTR NOT AVBL
ARBOR VITAE    NOT AVBL
EAGLE RIVER    NOT AVBL
LAND O LAKES   NOT AVBL
RHINELANDER    CLOUDY     4   1  88 CALM      30.23S FOG
PHILLIPS       NOT AVBL
ANTIGO         NOT AVBL
TOMAHAWK       NOT AVBL
MERRILL        NOT AVBL
$$

WIZ013-073-191400-
NORTHEAST WISCONSIN

CITY           SKY/WX    TMP DP  RH WIND       PRES   REMARKS
IRON MOUNTAIN  MOCLDY     7   3  84 NW3       30.26S
MARINETTE      PTCLDY    14  10  85 NW3       30.29R
$$

WIZ017-030-035>037-045-191400-
CENTRAL WISCONSIN

CITY           SKY/WX    TMP DP  RH WIND       PRES   REMARKS
MEDFORD        NOT AVBL
WAUSAU         MOCLDY    15  12  88 CALM      30.25R
MOSINEE        NOT AVBL
MARSHFIELD     CLOUDY    23  19  85 S5        30.26R
WISC RAPIDS    CLOUDY    23  19  85 CALM      30.29R
STEVENS POINT  NOT AVBL
WAUPACA        NOT AVBL
SHAWANO        NOT AVBL
CLINTONVILLE   NOT AVBL
$$

WIZ038-039-048-051-191400-
FOX VALLEY

CITY           SKY/WX    TMP DP  RH WIND       PRES   REMARKS
NWS GREEN BAY  CLEAR     17  14  88 CALM      30.30R
APPLETON       PTCLDY    16  14  93 W6        30.28S WCI   7
OSHKOSH        CLEAR     17  13  84 CALM      30.29R
FOND DU LAC    CLEAR     15  10  80 CALM      30.29R
$$

WIZ022-050-052-191400-
EAST CENTRAL WISCONSIN

CITY           SKY/WX    TMP DP  RH WIND       PRES   REMARKS
STURGEON BAY   PTCLDY    19  16  86 CALM      30.30R
MANITOWOC      NOT AVBL
SHEBOYGAN      CLOUDY    23  19  85 NW6       30.29R
$$

LMZ563-521-522-541>543-191400-
LAKESHORE

STATION/POSITION TIME  TEMP    WIND        PRES    VSBY  WAVE
                       AIR SEA DIR/SP/G                  HT/PER
                 (UTC) (F)     (DEG/KT/KT) (MB)    (MI)  (FT/S)
SHEBOYGAN LKSHOR 1200   25 34  280/  9/ 10 1026.6R
KEWAUNEE LKSHORE 1200   20     300/  4/  5 1024.7R
ALGOMA MARINA    1200          340/  7/  8   N/A
NORTHPORT PIER   1200   27     330/  3/  6 1025.4R
CHAMBERS ISLAND  1200   23     280/  3/  5 1025.7R
MENOMINEE LKSHOR 1200   17     280/  4/  6 1026.4R
$$



USA.gov is the U.S. government's official web portal to all federal, state and local government web resources and services.